Terug naar catalogus

NOAA 16 DEB

ActiefPO
NORAD 42371·DEBRIS·🇺🇸 United States

Gelanceerd Sep 21, 2000 vanaf Vandenberg Space Force Base

Loading…

Volgende Passages (komende 24 uur)

TLE

VerouderendSource: Space-Track

Epoch: Sep 10, 2026, 01:20 UTC

1 42371U 00055RP  26253.05612086  .00008975  00000-0  17396-2 0  9990
2 42371  99.0695 194.7939 0027625 162.3595 197.8569 14.63284378554984

Volg NOAA 16 DEB in realtime met AllMySat

Download on the App Store